Stations météo

réclame
Mon MeteoGroup
Ulm-Maehringen, Allemagne (10840): Température de l'air & dewpoint: 17.07.2018 07:00:00 - 23.07.2018 07:00:00 (CEST)Ulm-Maehringen, Allemagne (10840): Température de l'air 5cm & Température de l'air -5cm: 17.07.2018 07:00:00 - 23.07.2018 07:00:00 (CEST)Ulm-Maehringen, Allemagne (10840): Température de l'air -20cm & Température de l'air -100cm: 17.07.2018 07:00:00 - 23.07.2018 07:00:00 (CEST)Ulm-Maehringen, Allemagne (10840): Vitesse du vent & gusts: 17.07.2018 07:00:00 - 23.07.2018 07:00:00 (CEST)Ulm-Maehringen, Allemagne (10840): Direction du vent: 17.07.2018 07:00:00 - 23.07.2018 07:00:00 (CEST)Ulm-Maehringen, Allemagne (10840): reduced air pressure: 17.07.2018 07:00:00 - 23.07.2018 07:00:00 (CEST)Ulm-Maehringen, Allemagne (10840): visibility: 17.07.2018 07:00:00 - 23.07.2018 07:00:00 (CEST)Ulm-Maehringen, Allemagne (10840): Ensoleillement: 17.07.2018 07:00:00 - 23.07.2018 07:00:00 (CEST)Ulm-Maehringen, Allemagne (10840): Quantités de précipitations: 17.07.2018 07:00:00 - 23.07.2018 07:00:00 (CEST)
Date & Time tt [°C] td [°C] tt 5cm [°C] tt -5cm [°C] tt -20cm [°C] tt -100cm [°C] ff [km/h] ff [knt] fx [km/h] fx [knt] dd ppp [hPa] vv [km] sd [min] rr [mm]
23.07.2018 07:00:00 16,1 15,5 16,3 16,6 18,9 17,8 9 5 15 8 NNW 1016,6 4,8 0 0,0
23.07.2018 06:00:00 15,7 15,3 15,2 16,3 19,0 17,8 5 3 12 6 NW 1016,2 3,4 0 0,0
23.07.2018 05:00:00 16,0 15,6 15,9 16,8 19,2 17,8 8 4 13 7 NNW 1015,7 3,6 0 0,0
23.07.2018 04:00:00 16,1 15,6 15,9 16,9 19,3 17,8 7 4 14 7 NNW 1015,7 4,5 0 0,0
23.07.2018 03:00:00 16,0 15,5 16,1 17,1 19,5 17,8 6 3 10 5 NW 1015,8 4,2 0 0,0
23.07.2018 02:00:00 15,6 15,2 15,7 17,3 19,7 17,8 4 2 5 3 W 1016,0 3,8 0 0,0
23.07.2018 01:00:00 16,0 15,5 15,9 17,6 19,9 17,8 4 2 6 3 WNW 1015,8 3,8 0 0,0
23.07.2018 00:00:00 16,3 15,4 16,1 17,9 20,0 17,8 3 1 7 4 NW 1015,8 5 0 0,0
22.07.2018 23:00:00 16,6 15,4 16,6 18,1 20,2 17,8 5 3 10 5 WNW 1015,6 13 0 0,0
22.07.2018 22:00:00 16,6 15,8 16,6 18,5 20,4 17,8 5 3 9 5 WNW 1015,4 9 0 0,0
22.07.2018 21:00:00 17,5 16,0 17,0 19,6 20,5 17,8 4 2 9 5 W 1014,5 19 0 0,0
22.07.2018 20:00:00 18,1 16,0 18,5 20,5 20,5 17,8 6 4 10 6 SW 1014,0 31 0 0,0
22.07.2018 19:00:00 17,7 16,4 18,5 20,5 20,5 17,8 6 4 18 10 S 1013,9 11 0 0,0
22.07.2018 18:00:00 18,1 16,4 19,1 22,0 20,4 17,8 11 6 15 8 ESE 1013,8 14 17 2,0
22.07.2018 17:00:00 18,1 16,1 18,1 20,9 20,4 17,8 8 4 24 13 WNW 1013,8 10 0 1,1
22.07.2018 16:00:00 20,6 14,6 21,3 22,6 20,2 17,8 15 8 27 15 NW 1013,0 33 8 0,0
22.07.2018 15:00:00 21,6 14,1 23,3 24,2 19,9 17,8 13 7 27 14 NNW 1012,5 32 11 0,0
22.07.2018 14:00:00 20,6 14,5 22,8 23,1 19,6 17,8 9 5 25 13 WNW 1013,0 34 1 0,0
22.07.2018 13:00:00 20,3 15,0 23,1 23,2 19,3 17,8 9 5 20 11 NW 1013,2 31 2 0,0
22.07.2018 12:00:00 19,5 15,2 21,5 23,5 19,0 17,8 11 6 22 12 NW 1013,5 23 24 0,0
22.07.2018 11:00:00 18,5 16,1 20,0 20,9 18,8 17,8 5 3 12 6 W 1013,5 18 3 0,0
22.07.2018 10:00:00 18,0 16,3 19,9 20,2 18,8 17,8 8 4 16 8 WSW 1013,5 19 2 0,0
22.07.2018 09:00:00 16,6 15,7 17,7 18,0 18,8 17,8 7 4 11 6 WSW 1013,8 18 0 0,0
22.07.2018 08:00:00 15,8 15,4 16,0 17,0 18,9 17,8 6 3 7 4 SW 1013,6 9 0 0,3
22.07.2018 07:00:00 15,4 15,1 15,4 16,6 19,1 17,8 4 2 7 4 SW 1013,5 6 0 0,7
22.07.2018 06:00:00 15,3 15,0 15,2 16,6 19,2 17,8 4 2 6 3 SW 1013,3 7 0 0,0
22.07.2018 05:00:00 15,4 15,1 15,3 16,7 19,3 17,8 3 2 4 2 SW 1013,2 10 0 0,0
22.07.2018 04:00:00 15,6 15,1 15,4 16,8 19,5 17,8 4 2 5 3 WSW 1013,2 11 0 0,0
22.07.2018 03:00:00 15,4 15,0 15,3 16,9 19,7 17,8 3 2 9 5 W 1013,4 10 0 0,1
22.07.2018 02:00:00 15,5 15,2 15,4 17,1 19,9 17,8 6 3 9 5 SW 1013,6 10 0 0,1
22.07.2018 01:00:00 15,7 15,3 15,6 17,4 20,1 17,8 5 3 8 4 SW 1013,7 10 0 0,1
22.07.2018 00:00:00 15,8 15,4 15,7 17,6 20,3 17,8 4 2 8 4 WSW 1013,7 15 0 0,0
21.07.2018 23:00:00 16,0 15,1 15,9 18,0 20,4 17,8 6 3 9 5 WSW 1013,7 21 0 0,0
21.07.2018 22:00:00 16,2 15,3 16,2 18,4 20,6 17,8 4 2 11 6 WSW 1013,1 23 0 0,0
21.07.2018 21:00:00 16,7 15,4 16,6 19,1 20,7 17,8 6 3 13 7 W 1012,4 26 0 0,0
21.07.2018 20:00:00 17,3 15,8 17,3 20,0 20,8 17,8 7 4 13 7 W 1012,2 15 0 0,0
21.07.2018 19:00:00 17,6 15,7 18,2 20,9 20,7 17,8 6 4 13 7 W 1012,0 22 0 0,0
21.07.2018 18:00:00 18,2 16,2 19,2 21,6 20,6 17,8 5 3 12 6 WNW 1011,9 30 3 0,0
21.07.2018 17:00:00 17,9 15,6 18,5 22,0 20,5 17,8 5 3 14 8 N 1012,0 36 0 0,0
21.07.2018 16:00:00 17,9 15,9 19,2 22,3 20,4 17,8 8 5 12 6 N 1012,0 24 0 1,3
21.07.2018 15:00:00 17,1 15,8 17,8 21,0 20,4 17,7 10 5 23 13 NW 1012,5 13 0 4,4
21.07.2018 14:00:00 17,9 14,5 17,4 22,4 20,2 17,7 4 2 9 5 NNW 1012,5 16 0 0,6
21.07.2018 13:00:00 18,0 15,5 18,7 21,9 20,0 17,7 5 3 10 5 N 1012,4 17 0 0,1
21.07.2018 12:00:00 17,8 16,2 18,4 21,1 20,0 17,7 4 2 8 4 SW 1012,2 16 0 0,2
21.07.2018 11:00:00 16,9 15,8 17,1 19,5 20,0 17,7 6 3 11 6 SW 1012,5 11 0 0,1
21.07.2018 10:00:00 16,6 15,6 16,8 18,8 20,1 17,7 7 4 12 6 SW 1012,4 15 0 0,4
21.07.2018 09:00:00 16,3 15,5 16,5 18,2 20,2 17,7 8 4 14 7 WSW 1012,1 11 0 0,3
21.07.2018 08:00:00 16,3 15,2 16,3 17,8 20,3 17,7 6 4 16 8 SSW 1011,7 19 0 0,3
21.07.2018 07:00:00 15,9 15,2 15,7 17,4 20,5 17,7 5 3 10 5 W 1011,8 10 0 0,3
21.07.2018 06:00:00 16,0 15,0 15,5 17,4 20,7 17,7 8 4 11 6 SW 1011,7 10 0 0,7
21.07.2018 05:00:00 16,5 14,8 15,6 17,5 21,0 17,7 8 5 14 8 S 1012,0 11 0 0,2
21.07.2018 04:00:00 16,9 14,7 16,4 17,4 21,3 17,7 5 3 16 9 SE 1011,4 25 0 0,0
21.07.2018 03:00:00 16,9 14,6 16,0 17,3 21,6 17,7 8 4 13 7 SW 1011,5 29 0 0,0
21.07.2018 02:00:00 16,2 14,5 14,7 17,3 22,0 17,7 8 4 16 8 S 1012,3 23 0 0,0
21.07.2018 01:00:00 17,1 14,2 16,0 17,9 22,4 17,6 10 6 14 8 S 1012,4 30 0 0,0
21.07.2018 00:00:00 18,1 13,8 17,1 18,5 22,8 17,6 9 5 22 12 SSW 1012,1 45 0 0,0
20.07.2018 23:00:00 17,4 13,2 16,4 19,0 23,2 17,6 11 6 16 8 SW 1012,3 53 0 0,0
20.07.2018 22:00:00 16,8 14,0 15,5 19,8 23,6 17,6 7 4 13 7 W 1011,9 54 0 0,0
20.07.2018 21:00:00 18,8 13,5 17,3 21,1 23,9 17,6 9 5 35 19 W 1011,8 63 0 0,0
20.07.2018 20:00:00 20,2 12,4 19,8 22,6 24,1 17,6 17 9 39 21 WNW 1012,0 54 0 0,0
20.07.2018 19:00:00 23,5 18,0 23,3 25,3 24,2 17,6 5 3 8 4 W 1010,3 48 0 0,0
20.07.2018 18:00:00 25,4 13,7 25,7 26,7 24,1 17,6 4 2 7 4 WSW 1009,7 64 0 0,0
20.07.2018 17:00:00 25,4 12,5 25,8 28,0 24,0 17,6 3 2 10 6 E 1010,4 57 24 0,0
20.07.2018 16:00:00 23,3 18,8 24,9 27,5 23,9 17,6 2 1 11 6 NW 1011,4 39 23 0,0
20.07.2018 15:00:00 23,4 15,6 27,0 29,7 23,6 17,6 6 3 19 10 NW 1011,5 44 25 2,3
20.07.2018 14:00:00 18,3 14,9 17,3 30,1 23,0 17,6 18 10 33 18 W 1014,0 4,8 20 0,2
20.07.2018 13:00:00 27,3 11,2 34,0 34,8 22,2 17,6 9 5 16 8 E 1011,1 52 57 0,0
20.07.2018 12:00:00 25,7 10,9 30,6 31,9 21,5 17,6 9 5 21 12 SSE 1012,1 53 58 0,0
20.07.2018 11:00:00 24,5 10,6 29,0 29,2 21,1 17,6 7 4 12 7 E 1012,4 58 60 0,0
20.07.2018 10:00:00 22,9 9,7 26,6 25,3 21,0 17,5 7 4 13 7 ENE 1012,8 45 54 0,0
20.07.2018 09:00:00 20,3 10,7 22,0 21,4 21,0 17,5 5 3 7 4 ENE 1013,5 49 35 0,0
20.07.2018 08:00:00 16,8 11,5 17,3 18,8 21,3 17,5 0 0 5 3 N 1014,3 57 13 0,0
20.07.2018 07:00:00 13,6 9,9 13,7 17,0 21,7 17,5 3 2 6 3 WNW 1015,4 46 21 0,0
20.07.2018 06:00:00 11,9 9,5 10,9 16,5 22,1 17,5 4 2 6 3 WNW 1015,8 43 0 0,0
20.07.2018 05:00:00 12,2 9,5 12,0 17,0 22,5 17,5 4 2 6 3 WNW 1015,8 50 0 0,0
20.07.2018 04:00:00 12,8 9,7 10,1 17,5 23,0 17,5 4 2 6 3 WNW 1015,9 49 0 0,0
20.07.2018 03:00:00 13,6 10,0 10,9 18,3 23,5 17,5 4 2 5 3 WNW 1016,0 42 0 0,0
20.07.2018 02:00:00 14,8 10,6 11,4 19,2 24,0 17,5 5 3 6 4 NW 1016,2 50 0 0,0
20.07.2018 01:00:00 15,1 10,9 12,2 20,2 24,5 17,5 3 2 6 3 WNW 1016,5 51 0 0,0
20.07.2018 00:00:00 16,5 11,0 13,3 21,5 24,9 17,5 3 2 8 4 NW 1016,0 61 0 0,0
19.07.2018 23:00:00 17,9 11,0 16,1 22,6 25,4 17,5 5 3 6 4 NW 1015,6 63 0 0,0
19.07.2018 22:00:00 19,3 10,7 16,0 24,2 25,7 17,5 3 2 15 8 NNW 1015,2 42 0 0,0
19.07.2018 21:00:00 21,4 10,9 20,2 26,3 25,9 17,5 11 6 16 9 N 1013,9 70 31 0,0
19.07.2018 20:00:00 25,4 9,5 26,1 28,6 25,9 17,5 11 6 21 11 NNW 1013,1 70 58 0,0
19.07.2018 19:00:00 26,5 8,6 28,3 31,9 25,6 17,5 12 7 27 15 NW 1012,9 70 60 0,0
19.07.2018 18:00:00 27,5 8,7 30,6 34,4 25,2 17,5 11 6 27 15 NW 1012,9 61 60 0,0
19.07.2018 17:00:00 27,5 9,2 32,8 36,5 24,5 17,5 13 7 25 14 NNW 1013,2 70 55 0,0
19.07.2018 16:00:00 26,7 9,0 32,2 37,2 23,7 17,5 6 3 19 10 NNE 1013,8 68 54 0,0
19.07.2018 15:00:00 25,6 9,2 29,5 36,4 22,8 17,5 9 5 23 12 E 1014,5 64 56 0,0
19.07.2018 14:00:00 25,7 10,0 30,9 36,1 21,9 17,5 8 5 21 12 SW 1014,9 50 60 0,0
19.07.2018 13:00:00 24,7 9,4 31,4 34,1 21,1 17,5 6 4 17 9 E 1015,7 50 60 0,0
19.07.2018 12:00:00 23,6 9,7 28,9 31,2 20,5 17,5 8 5 19 11 E 1015,9 48 60 0,0
19.07.2018 11:00:00 22,3 10,0 27,7 27,9 20,0 17,5 11 6 21 11 ENE 1016,3 70 60 0,0
19.07.2018 10:00:00 21,1 10,3 24,4 24,0 19,9 17,5 13 7 22 12 E 1016,6 43 59 0,0
19.07.2018 09:00:00 19,2 9,9 21,0 20,5 19,9 17,5 11 6 18 10 ENE 1017,0 55 43 0,0
19.07.2018 08:00:00 17,4 10,8 18,0 17,4 20,2 17,5 7 4 10 6 N 1017,2 70 41 0,0
19.07.2018 07:00:00 13,0 10,2 12,6 15,8 20,6 17,5 4 2 7 4 WNW 1018,1 43 23 0,0
19.07.2018 06:00:00 12,0 10,3 10,6 15,6 21,0 17,5 4 2 7 4 WNW 1018,1 40 0 0,0
19.07.2018 05:00:00 12,5 10,5 10,8 16,3 21,3 17,5 5 3 7 4 WNW 1018,1 46 0 0,0
19.07.2018 04:00:00 13,5 11,0 11,7 17,2 21,7 17,5 4 2 6 3 W 1017,9 53 0 0,0
19.07.2018 03:00:00 14,7 11,1 12,2 17,7 22,1 17,5 4 2 7 4 WNW 1017,5 54 0 0,0
19.07.2018 02:00:00 15,6 11,0 12,7 18,4 22,5 17,5 4 2 7 4 NW 1017,4 59 0 0,0
19.07.2018 01:00:00 15,9 11,2 14,0 19,2 22,9 17,5 8 5 11 6 NNW 1017,1 62 0 0,0
19.07.2018 00:00:00 16,7 11,4 15,2 19,9 23,4 17,5 9 5 12 7 NW 1016,9 63 0 0,0
18.07.2018 23:00:00 17,2 11,7 15,6 20,9 23,7 17,5 9 5 13 7 NNW 1016,6 56 0 0,0
18.07.2018 22:00:00 18,1 12,1 16,9 22,5 24,0 17,5 10 6 16 8 N 1016,0 61 0 0,0
18.07.2018 21:00:00 21,7 11,9 20,5 24,5 24,1 17,5 11 6 21 12 NNW 1014,8 69 58 0,0
18.07.2018 20:00:00 24,4 11,2 24,7 26,5 24,1 17,5 15 8 22 12 NNW 1014,1 56 58 0,0
18.07.2018 19:00:00 25,3 10,7 27,3 29,5 23,8 17,5 19 10 28 15 N 1013,8 51 60 0,0
18.07.2018 18:00:00 25,9 10,7 29,0 31,8 23,4 17,5 14 7 29 16 NW 1013,9 48 60 0,0
18.07.2018 17:00:00 26,4 11,3 30,5 32,8 22,9 17,5 10 5 24 13 WNW 1013,9 64 46 0,0
18.07.2018 16:00:00 26,1 11,3 30,4 32,0 22,4 17,5 13 7 23 13 NW 1014,3 48 24 0,0
18.07.2018 15:00:00 24,8 11,1 28,5 33,4 21,7 17,5 8 4 30 16 NNE 1014,9 62 42 0,0
18.07.2018 14:00:00 23,8 11,8 25,6 31,3 21,0 17,5 10 5 20 11 NW 1015,6 62 34 0,0
18.07.2018 13:00:00 24,0 12,6 28,2 29,0 20,3 17,5 8 4 17 9 N 1015,6 62 16 0,0
18.07.2018 12:00:00 24,4 12,2 31,2 30,2 19,6 17,5 5 3 32 17 ENE 1015,7 55 42 0,1
18.07.2018 11:00:00 23,1 11,9 27,1 28,7 19,0 17,5 7 4 13 7 SSW 1016,2 46 60 0,0
18.07.2018 10:00:00 22,2 12,2 25,1 25,0 18,7 17,5 5 3 8 4 SSE 1016,5 59 60 0,0
18.07.2018 09:00:00 19,8 11,5 20,4 20,6 18,7 17,5 3 1 8 5 WSW 1017,2 58 60 0,0
18.07.2018 08:00:00 17,1 11,3 17,1 16,5 19,0 17,5 2 1 7 4 SW 1017,7 61 41 0,0
18.07.2018 07:00:00 12,7 10,8 11,8 14,5 19,3 17,5 0 0 7 4 N 1018,7 41 9 0,0
18.07.2018 06:00:00 12,9 10,3 10,3 14,5 19,6 17,5 4 2 10 5 W 1018,4 50 0 0,0
18.07.2018 05:00:00 14,7 10,4 12,2 15,4 19,9 17,5 6 4 11 6 W 1017,9 70 0 0,0
18.07.2018 04:00:00 16,0 10,6 14,7 15,8 20,3 17,5 7 4 12 6 W 1017,4 70 0 0,0
18.07.2018 03:00:00 16,0 10,4 14,4 15,6 20,7 17,5 8 4 14 8 W 1017,4 70 0 0,0
18.07.2018 02:00:00 16,1 10,2 14,3 16,0 21,1 17,5 9 5 14 8 W 1017,3 70 0 0,0
18.07.2018 01:00:00 14,3 11,5 11,8 16,8 21,5 17,5 6 4 11 6 W 1017,7 67 0 0,0
18.07.2018 00:00:00 16,1 11,6 13,9 17,7 21,9 17,5 8 4 16 8 SW 1017,2 68 0 0,0
17.07.2018 23:00:00 17,7 11,1 15,7 18,7 22,3 17,5 9 5 18 10 W 1016,6 70 0 0,0
17.07.2018 22:00:00 17,6 13,4 16,2 20,0 22,7 17,5 10 6 16 9 WSW 1016,8 58 0 0,0
17.07.2018 21:00:00 18,8 13,3 17,2 21,8 22,9 17,5 6 3 19 11 WSW 1015,7 70 52 0,0
17.07.2018 20:00:00 21,5 12,4 22,1 23,9 23,0 17,5 11 6 20 11 SW 1014,6 70 41 0,0
17.07.2018 19:00:00 20,0 13,0 19,3 25,2 22,9 17,5 11 6 39 21 SSW 1014,9 70 0 0,1
17.07.2018 18:00:00 22,0 11,7 22,6 28,8 22,4 17,5 26 14 48 26 NNW 1014,4 38 21 0,0
17.07.2018 17:00:00 27,2 9,7 31,2 32,5 21,7 17,5 15 8 29 16 W 1012,5 62 48 0,0
17.07.2018 16:00:00 26,7 8,7 30,7 32,9 21,0 17,5 10 5 31 17 W 1012,6 70 60 0,0
17.07.2018 15:00:00 25,5 8,0 28,1 32,0 20,3 17,5 21 11 42 23 W 1013,3 48 52 0,0
17.07.2018 14:00:00 25,8 7,4 29,4 29,6 19,7 17,5 13 7 32 18 NW 1013,2 64 59 0,0
17.07.2018 13:00:00 24,9 8,9 28,2 26,8 19,2 17,5 13 7 27 15 NW 1013,7 70 42 0,0
17.07.2018 12:00:00 23,8 10,5 24,4 25,7 18,7 17,5 12 6 23 12 NW 1013,9 70 30 0,0
17.07.2018 11:00:00 24,2 10,8 27,0 25,3 18,1 17,5 9 5 22 12 NW 1013,6 65 58 0,0
17.07.2018 10:00:00 22,9 13,6 25,2 23,6 17,8 17,5 6 3 12 6 W 1013,7 58 60 0,0
17.07.2018 09:00:00 19,9 13,7 19,5 20,1 17,7 17,5 4 2 7 4 SW 1014,3 57 60 0,0
17.07.2018 08:00:00 15,7 12,3 14,8 16,2 17,9 17,5 4 2 7 4 W 1015,2 39 60 0,0
17.07.2018 07:00:00 12,1 11,0 11,7 13,0 18,2 17,5 5 3 8 4 WSW 1015,8 22 50 0,0

tt = Température de l'air
td = dewpoint
tt 5cm = Température de l'air 5cm
tt -5cm = Température de l'air -5cm
tt -20cm = Température de l'air -20cm
tt -100cm = Température de l'air -100cm
ff = Vitesse du vent
fx = gusts
dd = Direction du vent
ppp = reduced air pressure
vv = visibility
sd = Ensoleillement
rr = Quantités de précipitations

stations d'obs. à proximité